Regional Weather Roundup
Issued by NWS

Home | Current Version | Previous Version | Text Only | Print | Product List | Glossary On
Versions: 1 2 3 4 5 6 7 8 9 10 11 12 13 14 15 16 17 18 19 20 21 22 23 24 25 26 27 28 29 30 31 32 33 34 35 36 37 38 39 40 41 42 43 44 45 46 47 48 49 50
000
ASUS43 KLMK 201610
RWRKY
KENTUCKY REGIONAL WEATHER ROUNDUP
NATIONAL WEATHER SERVICE LOUISVILLE KY
1200 PM EDT SUN AUG 20 2017

NOTE "FAIR" INDICATES FEW OR NO CLOUDS BELOW 12,000 FEET
WITH NO SIGNIFICANT WEATHER AND/OR OBSTRUCTIONS TO VISIBILITY.

KYZ001>023-026-027-061>063-070>075-201700-
WESTERN AND SOUTH CENTRAL KENTUCKY

CITY           SKY/WX    TMP DP  RH WIND       PRES   REMARKS
PADUCAH        SUNNY     87  72  60 S6        30.07S HX  93
HENDERSON      MOSUNNY   84  76  76 SE7       30.08S HX  93
OWENSBORO      PTSUNNY   84  74  71 SE5       30.10R HX  91
HOPKINSVILLE   SUNNY     87  73  61 SW5       30.10R HX  94
BOWLING GREEN  CLOUDY    88  72  58 CALM      30.11R HX  94
GLASGOW        SUNNY     88  71  57 S6        30.12S HX  93
$$

KYZ024-025-028>034-038-045-046-053-201700-
NORTH CENTRAL KENTUCKY

CITY           SKY/WX    TMP DP  RH WIND       PRES   REMARKS
LOUISVILLE/SDF MOSUNNY   87  72  60 VRB6      30.09S HX  93
LOUISVILLE/LOU MOSUNNY   86  73  65 SW6       30.10R HX  93
FORT KNOX      SUNNY     87  72  61 SW7       30.10R HX  92
$$

KYZ035>037-039>044-047>052-055>060-089>105-201700-
NORTHEAST KENTUCKY

CITY           SKY/WX    TMP DP  RH WIND       PRES   REMARKS
LEXINGTON      SUNNY     84  68  58 S8        30.14R
COVINGTON      MOSUNNY   84  70  62 SW8       30.11R
FRANKFORT      SUNNY     85  68  56 VRB3      30.12R
$$

KYZ054-064>069-076>088-106>120-201700-
SOUTHEAST KENTUCKY

CITY           SKY/WX    TMP DP  RH WIND       PRES   REMARKS
JACKSON        SUNNY     82  69  64 CALM      30.16S
LONDON         SUNNY     83  65  54 S7        30.15S
SOMERSET       SUNNY     82  64  54 SW3       30.15S
MIDDLESBORO    SUNNY     82  70  67 CALM      30.17S
MONTICELLO     SUNNY     86  68  54 VRB7      30.16R
$$




USA.gov is the U.S. government's official web portal to all federal, state and local government web resources and services.